Time,TemperatureF,DewpointF,PressureIn,WindDirection,WindDirectionDegrees,WindSpeedMPH,WindSpeedGustMPH,Humidity,HourlyPrecipIn,Conditions,Clouds,dailyrainin,SoftwareType,DateUTC
2013-06-06 00:02:00,50.0,31.0,-100.00,North,-999,-999.0,-999.0,47,-99.99,,,-99.99,,2013-06-06 06:02:00,
2013-06-06 00:12:00,50.0,31.0,-100.00,North,-999,-999.0,-999.0,49,-99.99,,,-99.99,,2013-06-06 06:12:00,
2013-06-06 00:22:00,50.0,31.0,-100.00,North,-999,-999.0,-999.0,49,-99.99,,,-99.99,,2013-06-06 06:22:00,
2013-06-06 00:32:00,50.0,31.0,-100.00,North,-999,-999.0,-999.0,49,-99.99,,,-99.99,,2013-06-06 06:32:00,
2013-06-06 00:42:00,49.0,33.0,-100.00,North,-999,-999.0,-999.0,54,-99.99,,,-99.99,,2013-06-06 06:42:00,
2013-06-06 00:52:00,48.0,32.0,-100.00,North,-999,-999.0,-999.0,53,-99.99,,,-99.99,,2013-06-06 06:52:00,
2013-06-06 01:02:00,48.0,32.0,-100.00,North,-999,-999.0,-999.0,53,-99.99,,,-99.99,,2013-06-06 07:02:00,
2013-06-06 01:12:00,48.0,33.0,-100.00,North,-999,-999.0,-999.0,55,-99.99,,,-99.99,,2013-06-06 07:12:00,
2013-06-06 01:22:00,48.0,33.0,-100.00,North,-999,-999.0,-999.0,55,-99.99,,,-99.99,,2013-06-06 07:22:00,
2013-06-06 01:32:00,48.0,33.0,-100.00,North,-999,-999.0,-999.0,55,-99.99,,,-99.99,,2013-06-06 07:32:00,
2013-06-06 01:42:00,48.0,33.0,-100.00,North,-999,-999.0,-999.0,56,-99.99,,,-99.99,,2013-06-06 07:42:00,
2013-06-06 01:52:00,48.0,33.0,-100.00,North,-999,-999.0,-999.0,56,-99.99,,,-99.99,,2013-06-06 07:52:00,
2013-06-06 02:02:00,48.0,34.0,-100.00,North,-999,-999.0,-999.0,59,-99.99,,,-99.99,,2013-06-06 08:02:00,
2013-06-06 02:12:00,47.0,33.0,-100.00,North,-999,-999.0,-999.0,58,-99.99,,,-99.99,,2013-06-06 08:12:00,
2013-06-06 02:22:00,47.0,33.0,-100.00,North,-999,-999.0,-999.0,58,-99.99,,,-99.99,,2013-06-06 08:22:00,
2013-06-06 02:32:00,47.0,33.0,-100.00,North,-999,-999.0,-999.0,58,-99.99,,,-99.99,,2013-06-06 08:32:00,
2013-06-06 02:42:00,47.0,33.0,-100.00,North,-999,-999.0,-999.0,58,-99.99,,,-99.99,,2013-06-06 08:42:00,
2013-06-06 02:52:00,47.0,33.0,-100.00,North,-999,-999.0,-999.0,57,-99.99,,,-99.99,,2013-06-06 08:52:00,
2013-06-06 03:02:00,47.0,33.0,-100.00,North,-999,-999.0,-999.0,57,-99.99,,,-99.99,,2013-06-06 09:02:00,
2013-06-06 03:12:00,47.0,33.0,-100.00,North,-999,-999.0,-999.0,57,-99.99,,,-99.99,,2013-06-06 09:12:00,
2013-06-06 03:22:00,47.0,33.0,-100.00,North,-999,-999.0,-999.0,57,-99.99,,,-99.99,,2013-06-06 09:22:00,
2013-06-06 03:32:00,47.0,33.0,-100.00,North,-999,-999.0,-999.0,57,-99.99,,,-99.99,,2013-06-06 09:32:00,
2013-06-06 03:43:00,47.0,34.0,-100.00,North,-999,-999.0,-999.0,60,-99.99,,,-99.99,,2013-06-06 09:43:00,
2013-06-06 03:53:00,46.0,34.0,-100.00,North,-999,-999.0,-999.0,61,-99.99,,,-99.99,,2013-06-06 09:53:00,
2013-06-06 04:02:00,46.0,34.0,-100.00,North,-999,-999.0,-999.0,61,-99.99,,,-99.99,,2013-06-06 10:02:00,
2013-06-06 04:12:00,46.0,34.0,-100.00,North,-999,-999.0,-999.0,62,-99.99,,,-99.99,,2013-06-06 10:12:00,
2013-06-06 04:22:00,46.0,34.0,-100.00,North,-999,-999.0,-999.0,62,-99.99,,,-99.99,,2013-06-06 10:22:00,
2013-06-06 04:33:00,46.0,34.0,-100.00,North,-999,-999.0,-999.0,62,-99.99,,,-99.99,,2013-06-06 10:33:00,
2013-06-06 04:42:00,45.0,34.0,-100.00,North,-999,-999.0,-999.0,65,-99.99,,,-99.99,,2013-06-06 10:42:00,
2013-06-06 04:53:00,45.0,35.0,-100.00,North,-999,-999.0,-999.0,65,-99.99,,,-99.99,,2013-06-06 10:53:00,
2013-06-06 05:02:00,45.0,35.0,-100.00,North,-999,-999.0,-999.0,65,-99.99,,,-99.99,,2013-06-06 11:02:00,
2013-06-06 05:12:00,45.0,34.0,-100.00,North,-999,-999.0,-999.0,65,-99.99,,,-99.99,,2013-06-06 11:12:00,
2013-06-06 05:22:00,45.0,34.0,-100.00,North,-999,-999.0,-999.0,65,-99.99,,,-99.99,,2013-06-06 11:22:00,
2013-06-06 05:32:00,45.0,34.0,-100.00,North,-999,-999.0,-999.0,65,-99.99,,,-99.99,,2013-06-06 11:32:00,
2013-06-06 05:42:00,44.0,34.0,-100.00,North,-999,-999.0,-999.0,67,-99.99,,,-99.99,,2013-06-06 11:42:00,
2013-06-06 05:52:00,44.0,34.0,-100.00,North,-999,-999.0,-999.0,67,-99.99,,,-99.99,,2013-06-06 11:52:00,
2013-06-06 06:02:00,44.0,35.0,-100.00,North,-999,-999.0,-999.0,70,-99.99,,,-99.99,,2013-06-06 12:02:00,
2013-06-06 06:12:00,44.0,35.0,-100.00,North,-999,-999.0,-999.0,72,-99.99,,,-99.99,,2013-06-06 12:12:00,
2013-06-06 06:22:00,44.0,35.0,-100.00,North,-999,-999.0,-999.0,72,-99.99,,,-99.99,,2013-06-06 12:22:00,
2013-06-06 06:32:00,44.0,35.0,-100.00,North,-999,-999.0,-999.0,72,-99.99,,,-99.99,,2013-06-06 12:32:00,
2013-06-06 06:42:00,43.0,35.0,-100.00,North,-999,-999.0,-999.0,71,-99.99,,,-99.99,,2013-06-06 12:42:00,
2013-06-06 06:53:00,44.0,36.0,-100.00,North,-999,-999.0,-999.0,72,-99.99,,,-99.99,,2013-06-06 12:53:00,
2013-06-06 07:03:00,44.0,36.0,-100.00,North,-999,-999.0,-999.0,72,-99.99,,,-99.99,,2013-06-06 13:03:00,
2013-06-06 07:12:00,46.0,37.0,-100.00,North,-999,-999.0,-999.0,70,-99.99,,,-99.99,,2013-06-06 13:12:00,
2013-06-06 07:22:00,46.0,37.0,-100.00,North,-999,-999.0,-999.0,70,-99.99,,,-99.99,,2013-06-06 13:22:00,
2013-06-06 07:32:00,46.0,37.0,-100.00,North,-999,-999.0,-999.0,70,-99.99,,,-99.99,,2013-06-06 13:32:00,
2013-06-06 07:42:00,54.0,40.0,-100.00,North,-999,-999.0,-999.0,58,-99.99,,,-99.99,,2013-06-06 13:42:00,
2013-06-06 07:53:00,56.0,39.0,-100.00,North,-999,-999.0,-999.0,52,-99.99,,,-99.99,,2013-06-06 13:53:00,
2013-06-06 08:03:00,56.0,39.0,-100.00,North,-999,-999.0,-999.0,52,-99.99,,,-99.99,,2013-06-06 14:03:00,
2013-06-06 08:12:00,58.0,39.0,-100.00,North,-999,-999.0,-999.0,48,-99.99,,,-99.99,,2013-06-06 14:12:00,
2013-06-06 08:22:00,58.0,39.0,-100.00,North,-999,-999.0,-999.0,48,-99.99,,,-99.99,,2013-06-06 14:22:00,
2013-06-06 08:32:00,58.0,39.0,-100.00,North,-999,-999.0,-999.0,48,-99.99,,,-99.99,,2013-06-06 14:32:00,
2013-06-06 08:42:00,59.0,40.0,-100.00,North,-999,-999.0,-999.0,49,-99.99,,,-99.99,,2013-06-06 14:42:00,
2013-06-06 08:53:00,59.0,40.0,-100.00,North,-999,-999.0,-999.0,49,-99.99,,,-99.99,,2013-06-06 14:53:00,
2013-06-06 09:02:00,59.0,40.0,-100.00,North,-999,-999.0,-999.0,49,-99.99,,,-99.99,,2013-06-06 15:02:00,
2013-06-06 09:12:00,59.0,43.0,-100.00,North,-999,-999.0,-999.0,55,-99.99,,,-99.99,,2013-06-06 15:12:00,
2013-06-06 09:22:00,59.0,43.0,-100.00,North,-999,-999.0,-999.0,55,-99.99,,,-99.99,,2013-06-06 15:22:00,
2013-06-06 09:43:00,59.0,43.0,-100.00,North,-999,-999.0,-999.0,55,-99.99,,,-99.99,,2013-06-06 15:43:00,
2013-06-06 09:53:00,62.0,44.0,-100.00,North,-999,-999.0,-999.0,51,-99.99,,,-99.99,,2013-06-06 15:53:00,
2013-06-06 10:03:00,64.0,45.0,-100.00,North,-999,-999.0,-999.0,49,-99.99,,,-99.99,,2013-06-06 16:03:00,
2013-06-06 10:12:00,65.0,44.0,-100.00,North,-999,-999.0,-999.0,47,-99.99,,,-99.99,,2013-06-06 16:12:00,
2013-06-06 10:43:00,69.0,43.0,-100.00,North,-999,-999.0,-999.0,39,-99.99,,,-99.99,,2013-06-06 16:43:00,
2013-06-06 10:53:00,70.0,43.0,-100.00,North,-999,-999.0,-999.0,37,-99.99,,,-99.99,,2013-06-06 16:53:00,
2013-06-06 11:03:00,70.0,43.0,-100.00,North,-999,-999.0,-999.0,37,-99.99,,,-99.99,,2013-06-06 17:03:00,
2013-06-06 11:12:00,70.0,42.0,-100.00,North,-999,-999.0,-999.0,36,-99.99,,,-99.99,,2013-06-06 17:12:00,
2013-06-06 11:22:00,70.0,42.0,-100.00,North,-999,-999.0,-999.0,36,-99.99,,,-99.99,,2013-06-06 17:22:00,
2013-06-06 11:42:00,72.0,42.0,-100.00,North,-999,-999.0,-999.0,33,-99.99,,,-99.99,,2013-06-06 17:42:00,
2013-06-06 11:53:00,72.0,42.0,-100.00,North,-999,-999.0,-999.0,33,-99.99,,,-99.99,,2013-06-06 17:53:00,
2013-06-06 12:03:00,73.0,42.0,-100.00,North,-999,-999.0,-999.0,32,-99.99,,,-99.99,,2013-06-06 18:03:00,
2013-06-06 12:12:00,74.0,41.0,-100.00,North,-999,-999.0,-999.0,31,-99.99,,,-99.99,,2013-06-06 18:12:00,
2013-06-06 12:22:00,74.0,41.0,-100.00,North,-999,-999.0,-999.0,31,-99.99,,,-99.99,,2013-06-06 18:22:00,
2013-06-06 12:33:00,74.0,41.0,-100.00,North,-999,-999.0,-999.0,31,-99.99,,,-99.99,,2013-06-06 18:33:00,
2013-06-06 12:43:00,75.0,42.0,-100.00,North,-999,-999.0,-999.0,30,-99.99,,,-99.99,,2013-06-06 18:43:00,
2013-06-06 12:53:00,75.0,42.0,-100.00,North,-999,-999.0,-999.0,30,-99.99,,,-99.99,,2013-06-06 18:53:00,
2013-06-06 13:02:00,75.0,42.0,-100.00,North,-999,-999.0,-999.0,30,-99.99,,,-99.99,,2013-06-06 19:02:00,
2013-06-06 13:12:00,76.0,42.0,-100.00,North,-999,-999.0,-999.0,29,-99.99,,,-99.99,,2013-06-06 19:12:00,
2013-06-06 13:23:00,76.0,42.0,-100.00,North,-999,-999.0,-999.0,29,-99.99,,,-99.99,,2013-06-06 19:23:00,
2013-06-06 13:42:00,76.0,40.0,-100.00,North,-999,-999.0,-999.0,28,-99.99,,,-99.99,,2013-06-06 19:42:00,
2013-06-06 13:53:00,76.0,40.0,-100.00,North,-999,-999.0,-999.0,28,-99.99,,,-99.99,,2013-06-06 19:53:00,
2013-06-06 14:03:00,75.0,41.0,-100.00,North,-999,-999.0,-999.0,29,-99.99,,,-99.99,,2013-06-06 20:03:00,
2013-06-06 14:12:00,76.0,40.0,-100.00,North,-999,-999.0,-999.0,28,-99.99,,,-99.99,,2013-06-06 20:12:00,
2013-06-06 14:22:00,76.0,40.0,-100.00,North,-999,-999.0,-999.0,28,-99.99,,,-99.99,,2013-06-06 20:22:00,
2013-06-06 14:32:00,76.0,40.0,-100.00,North,-999,-999.0,-999.0,28,-99.99,,,-99.99,,2013-06-06 20:32:00,
2013-06-06 14:42:00,75.0,39.0,-100.00,North,-999,-999.0,-999.0,26,-99.99,,,-99.99,,2013-06-06 20:42:00,
2013-06-06 14:53:00,75.0,39.0,-100.00,North,-999,-999.0,-999.0,26,-99.99,,,-99.99,,2013-06-06 20:53:00,
2013-06-06 15:03:00,75.0,39.0,-100.00,North,-999,-999.0,-999.0,26,-99.99,,,-99.99,,2013-06-06 21:03:00,
2013-06-06 15:12:00,76.0,38.0,-100.00,North,-999,-999.0,-999.0,26,-99.99,,,-99.99,,2013-06-06 21:12:00,
2013-06-06 15:22:00,76.0,38.0,-100.00,North,-999,-999.0,-999.0,26,-99.99,,,-99.99,,2013-06-06 21:22:00,
2013-06-06 15:43:00,75.0,39.0,-100.00,North,-999,-999.0,-999.0,27,-99.99,,,-99.99,,2013-06-06 21:43:00,
2013-06-06 15:53:00,75.0,39.0,-100.00,North,-999,-999.0,-999.0,27,-99.99,,,-99.99,,2013-06-06 21:53:00,
2013-06-06 16:02:00,75.0,39.0,-100.00,North,-999,-999.0,-999.0,27,-99.99,,,-99.99,,2013-06-06 22:02:00,
2013-06-06 16:12:00,76.0,40.0,-100.00,North,-999,-999.0,-999.0,27,-99.99,,,-99.99,,2013-06-06 22:12:00,
2013-06-06 16:23:00,76.0,40.0,-100.00,North,-999,-999.0,-999.0,27,-99.99,,,-99.99,,2013-06-06 22:23:00,
2013-06-06 16:33:00,76.0,40.0,-100.00,North,-999,-999.0,-999.0,27,-99.99,,,-99.99,,2013-06-06 22:33:00,
2013-06-06 16:43:00,76.0,39.0,-100.00,North,-999,-999.0,-999.0,27,-99.99,,,-99.99,,2013-06-06 22:43:00,
2013-06-06 16:53:00,76.0,38.0,-100.00,North,-999,-999.0,-999.0,26,-99.99,,,-99.99,,2013-06-06 22:53:00,
2013-06-06 17:02:00,76.0,38.0,-100.00,North,-999,-999.0,-999.0,26,-99.99,,,-99.99,,2013-06-06 23:02:00,
2013-06-06 17:12:00,75.0,38.0,-100.00,North,-999,-999.0,-999.0,26,-99.99,,,-99.99,,2013-06-06 23:12:00,
2013-06-06 17:22:00,75.0,38.0,-100.00,North,-999,-999.0,-999.0,26,-99.99,,,-99.99,,2013-06-06 23:22:00,
2013-06-06 17:42:00,75.0,37.0,-100.00,North,-999,-999.0,-999.0,25,-99.99,,,-99.99,,2013-06-06 23:42:00,
2013-06-06 17:52:00,75.0,37.0,-100.00,North,-999,-999.0,-999.0,25,-99.99,,,-99.99,,2013-06-06 23:52:00,
2013-06-06 18:02:00,76.0,37.0,-100.00,North,-999,-999.0,-999.0,24,-99.99,,,-99.99,,2013-06-07 00:02:00,
2013-06-06 18:12:00,74.0,34.0,-100.00,North,-999,-999.0,-999.0,23,-99.99,,,-99.99,,2013-06-07 00:12:00,
2013-06-06 18:22:00,74.0,34.0,-100.00,North,-999,-999.0,-999.0,23,-99.99,,,-99.99,,2013-06-07 00:22:00,
2013-06-06 18:32:00,74.0,34.0,-100.00,North,-999,-999.0,-999.0,23,-99.99,,,-99.99,,2013-06-07 00:32:00,
2013-06-06 18:42:00,71.0,30.0,-100.00,North,-999,-999.0,-999.0,21,-99.99,,,-99.99,,2013-06-07 00:42:00,
2013-06-06 18:52:00,70.0,30.0,-100.00,North,-999,-999.0,-999.0,22,-99.99,,,-99.99,,2013-06-07 00:52:00,
2013-06-06 19:02:00,70.0,30.0,-100.00,North,-999,-999.0,-999.0,22,-99.99,,,-99.99,,2013-06-07 01:02:00,
2013-06-06 19:12:00,69.0,31.0,-100.00,North,-999,-999.0,-999.0,24,-99.99,,,-99.99,,2013-06-07 01:12:00,
2013-06-06 19:22:00,69.0,31.0,-100.00,North,-999,-999.0,-999.0,24,-99.99,,,-99.99,,2013-06-07 01:22:00,
2013-06-06 19:32:00,69.0,31.0,-100.00,North,-999,-999.0,-999.0,24,-99.99,,,-99.99,,2013-06-07 01:32:00,
2013-06-06 19:42:00,68.0,34.0,-100.00,North,-999,-999.0,-999.0,28,-99.99,,,-99.99,,2013-06-07 01:42:00,
2013-06-06 19:52:00,66.0,33.0,-100.00,North,-999,-999.0,-999.0,29,-99.99,,,-99.99,,2013-06-07 01:52:00,
2013-06-06 20:02:00,66.0,33.0,-100.00,North,-999,-999.0,-999.0,29,-99.99,,,-99.99,,2013-06-07 02:02:00,
2013-06-06 20:12:00,66.0,31.0,-100.00,North,-999,-999.0,-999.0,27,-99.99,,,-99.99,,2013-06-07 02:12:00,
2013-06-06 20:22:00,66.0,31.0,-100.00,North,-999,-999.0,-999.0,27,-99.99,,,-99.99,,2013-06-07 02:22:00,
2013-06-06 20:32:00,66.0,31.0,-100.00,North,-999,-999.0,-999.0,27,-99.99,,,-99.99,,2013-06-07 02:32:00,
2013-06-06 20:42:00,65.0,33.0,-100.00,North,-999,-999.0,-999.0,29,-99.99,,,-99.99,,2013-06-07 02:42:00,
2013-06-06 20:52:00,65.0,33.0,-100.00,North,-999,-999.0,-999.0,29,-99.99,,,-99.99,,2013-06-07 02:52:00,
2013-06-06 21:02:00,64.0,32.0,-100.00,North,-999,-999.0,-999.0,30,-99.99,,,-99.99,,2013-06-07 03:02:00,
2013-06-06 21:12:00,63.0,32.0,-100.00,North,-999,-999.0,-999.0,31,-99.99,,,-99.99,,2013-06-07 03:12:00,
2013-06-06 21:22:00,63.0,32.0,-100.00,North,-999,-999.0,-999.0,31,-99.99,,,-99.99,,2013-06-07 03:22:00,
2013-06-06 21:32:00,63.0,32.0,-100.00,North,-999,-999.0,-999.0,31,-99.99,,,-99.99,,2013-06-07 03:32:00,
2013-06-06 21:43:00,61.0,31.0,-100.00,North,-999,-999.0,-999.0,31,-99.99,,,-99.99,,2013-06-07 03:43:00,
2013-06-06 21:53:00,60.0,31.0,-100.00,North,-999,-999.0,-999.0,32,-99.99,,,-99.99,,2013-06-07 03:53:00,
2013-06-06 22:03:00,60.0,31.0,-100.00,North,-999,-999.0,-999.0,32,-99.99,,,-99.99,,2013-06-07 04:03:00,
2013-06-06 22:12:00,60.0,33.0,-100.00,North,-999,-999.0,-999.0,36,-99.99,,,-99.99,,2013-06-07 04:12:00,
2013-06-06 22:22:00,60.0,33.0,-100.00,North,-999,-999.0,-999.0,36,-99.99,,,-99.99,,2013-06-07 04:22:00,
2013-06-06 22:33:00,60.0,33.0,-100.00,North,-999,-999.0,-999.0,36,-99.99,,,-99.99,,2013-06-07 04:33:00,
2013-06-06 22:42:00,57.0,33.0,-100.00,North,-999,-999.0,-999.0,40,-99.99,,,-99.99,,2013-06-07 04:42:00,
2013-06-06 22:53:00,57.0,33.0,-100.00,North,-999,-999.0,-999.0,40,-99.99,,,-99.99,,2013-06-07 04:53:00,
2013-06-06 23:02:00,57.0,33.0,-100.00,North,-999,-999.0,-999.0,40,-99.99,,,-99.99,,2013-06-07 05:02:00,
2013-06-06 23:12:00,55.0,33.0,-100.00,North,-999,-999.0,-999.0,43,-99.99,,,-99.99,,2013-06-07 05:12:00,
2013-06-06 23:22:00,55.0,33.0,-100.00,North,-999,-999.0,-999.0,43,-99.99,,,-99.99,,2013-06-07 05:22:00,
2013-06-06 23:32:00,55.0,33.0,-100.00,North,-999,-999.0,-999.0,43,-99.99,,,-99.99,,2013-06-07 05:32:00,
2013-06-06 23:42:00,54.0,34.0,-100.00,North,-999,-999.0,-999.0,46,-99.99,,,-99.99,,2013-06-07 05:42:00,
2013-06-06 23:52:00,54.0,34.0,-100.00,North,-999,-999.0,-999.0,46,-99.99,,,-99.99,,2013-06-07 05:52:00,